Terug naar catalogus

COSMOS 1434

ActiefMilitairLEO
NORAD 13766·PAYLOAD·🇷🇺 Russia

Gelanceerd Jan 19, 1983 vanaf Plesetsk Cosmodrome

Loading…

Volgende Passages (komende 24 uur)

TLE

VersSource: Space-Track

Epoch: Sep 14, 2026, 22:15 UTC

1 13766U 83002F   26257.92732941 -.00000024  00000-0 -51647-4 0  9990
2 13766  74.0227  59.7157 0022970  99.3288 334.6786 12.53824827998320

Volg COSMOS 1434 in realtime met AllMySat

Download on the App Store